This is the latest recevied weather packets stored in our database for station/object N7WSS. If no packets are shown the sender has not sent any weather packets the latest 10 day(s).
| Time | Temp. | Humidity | Pressure | Rain* | Wind** | Luminosity | Snow |
|---|---|---|---|---|---|---|---|
| 1778020273 | 23.89° C | 32% | 1008.3 hPa | 0 mm | - | - | - |
| 1778019970 | 23.33° C | 33% | 1008.5 hPa | 0 mm | - | - | - |
| 1778019666 | 23.89° C | 32% | 1008.4 hPa | 0 mm | - | - | - |
| 1778019363 | 24.44° C | 31% | 1008.4 hPa | 0 mm | - | - | - |
| 1778019059 | 24.44° C | 31% | 1008.4 hPa | 0 mm | - | - | - |
| 1778018757 | 23.89° C | 34% | 1008.4 hPa | 0 mm | - | - | - |
| 1778018454 | 24.44° C | 34% | 1008.7 hPa | 0 mm | - | - | - |
| 1778018152 | 24.44° C | 34% | 1008.7 hPa | 0 mm | - | - | - |
| 1778017850 | 23.89° C | 34% | 1008.8 hPa | 0 mm | - | - | - |
| 1778017548 | 23.33° C | 36% | 1008.9 hPa | 0 mm | - | - | - |
| 1778017244 | 23.89° C | 35% | 1008.8 hPa | 0 mm | - | - | - |
| 1778016942 | 22.78° C | 36% | 1008.7 hPa | 0 mm | - | - | - |
| 1778016638 | 23.89° C | 35% | 1008.8 hPa | 0 mm | - | - | - |
| 1778016335 | 23.89° C | 36% | 1008.9 hPa | 0 mm | - | - | - |
| 1778016032 | 24.44° C | 35% | 1009 hPa | 0 mm | - | - | - |
| 1778015729 | 24.44° C | 34% | 1008.9 hPa | 0 mm | - | - | - |
| 1778015426 | 24.44° C | 35% | 1009 hPa | 0 mm | - | - | - |
| 1778015123 | 24.44° C | 35% | 1009 hPa | 0 mm | - | - | - |
| 1778014820 | 24.44° C | 35% | 1009.1 hPa | 0 mm | - | - | - |
| 1778014518 | 23.89° C | 33% | 1009.2 hPa | 0 mm | - | - | - |
| 1778014215 | 23.89° C | 36% | 1009.2 hPa | 0 mm | - | - | - |
| 1778013912 | 23.89° C | 35% | 1009.2 hPa | 0 mm | - | - | - |
| 1778013609 | 23.89° C | 37% | 1009.2 hPa | 0 mm | - | - | - |
| 1778013306 | 23.89° C | 37% | 1009.3 hPa | 0 mm | - | - | - |
| 1778013002 | 23.33° C | 39% | 1009.2 hPa | 0 mm | - | - | - |
* Rain latest hour (hover to see other rain measurements)
** Current wind speed in m/s (hover to see current wind gust speed)